H1 CPF 2 NER 2025 3 12 9 071 01 glonass127 H2 1106403 9127 37869 2025 3 12 0 0 0 2025 3 15 23 45 0 900 1 1 0 0 0 1 H9 10 0 60746 0.00000 0 -2474125.627 -22120019.634 -12423206.343 10 0 60746 900.00000 0 -2458933.927 -23496675.422 -9594727.331 10 0 60746 1800.00000 0 -2563578.332 -24511012.273 -6579651.083 10 0 60746 2700.00000 0 -2737100.426 -25135719.649 -3436739.481 10 0 60746 3600.00000 0 -2924761.402 -25356373.842 -227118.385 10 0 60746 4500.00000 0 -3070600.123 -25171952.840 2986916.910 10 0 60746 5400.00000 0 -3120037.042 -24594808.132 6143109.470 10 0 60746 6300.00000 0 -3022413.799 -23650098.034 9180438.265 10 0 60746 7200.00000 0 -2733362.039 -22374709.319 12040282.885 10 0 60746 8100.00000 0 -2216903.029 -20815714.736 14667534.225 10 0 60746 9000.00000 0 -1447191.652 -19028432.405 17011631.618 10 0 60746 9900.00000 0 -409833.498 -17074168.645 19027508.740 10 0 60746 10800.00000 0 897278.310 -15017737.771 20676432.758 10 0 60746 11700.00000 0 2463640.298 -12924860.542 21926723.315 10 0 60746 12600.00000 0 4266342.815 -10859547.125 22754340.093 10 0 60746 13500.00000 0 6270793.105 -8881570.347 23143329.872 10 0 60746 14400.00000 0 8431928.658 -7044131.020 23086126.130 10 0 60746 15300.00000 0 10695872.733 -5391809.246 22583696.302 10 0 60746 16200.00000 0 13001966.422 -3958884.204 21645533.918 10 0 60746 17100.00000 0 15285096.477 -2768090.343 20289494.966 10 0 60746 18000.00000 0 17478225.876 -1829860.821 18541480.000 10 0 60746 18900.00000 0 19515025.475 -1142089.654 16434965.838 10 0 60746 19800.00000 0 21332500.134 -690423.461 14010393.062 10 0 60746 20700.00000 0 22873501.865 -449072.217 11314418.141 10 0 60746 21600.00000 0 24089026.080 -382107.188 8399041.596 10 0 60746 22500.00000 0 24940194.638 -445193.758 5320626.331 10 0 60746 23400.00000 0 25399841.279 -587688.247 2138822.938 10 0 60746 24300.00000 0 25453630.580 -755011.743 -1084578.686 10 0 60746 25200.00000 0 25100660.415 -891201.326 -4286849.853 10 0 60746 26100.00000 0 24353519.251 -941530.366 -7405552.166 10 0 60746 27000.00000 0 23237792.598 -855085.539 -10379770.300 10 0 60746 27900.00000 0 21791036.574 -587188.992 -13151322.779 10 0 60746 28800.00000 0 20061259.723 -101559.814 -15665924.883 10 0 60746 29700.00000 0 18104975.887 627880.415 -17874278.430 10 0 60746 30600.00000 0 15984909.941 1615638.287 -19733064.528 10 0 60746 31500.00000 0 13767453.776 2863777.048 -21205817.277 10 0 60746 32400.00000 0 11519981.039 4361582.849 -22263659.121 10 0 60746 33300.00000 0 9308135.574 6085785.253 -22885881.679 10 0 60746 34200.00000 0 7193209.624 8001324.138 -23060359.412 10 0 60746 35100.00000 0 5229723.864 10062631.168 -22783787.444 10 0 60746 36000.00000 0 3463312.249 12215371.501 -22061738.865 10 0 60746 36900.00000 0 1929001.092 14398571.261 -20908541.034 10 0 60746 37800.00000 0 649954.202 16547039.733 -19346974.418 10 0 60746 38700.00000 0 -363264.638 18593982.611 -17407801.510 10 0 60746 39600.00000 0 -1112883.291 20473694.747 -15129136.994 10 0 60746 40500.00000 0 -1613562.247 22124217.917 -12555673.682 10 0 60746 41400.00000 0 -1891503.911 23489851.260 -9737781.664 10 0 60746 42300.00000 0 -1983071.889 24523408.956 -6730500.544 10 0 60746 43200.00000 0 -1932982.554 25188131.299 -3592446.533 10 0 60746 44100.00000 0 -1792148.812 25459170.672 -384657.415 10 0 60746 45000.00000 0 -1615270.046 25324592.515 2830600.762 10 0 60746 45900.00000 0 -1458271.933 24785852.273 5991041.373 10 0 60746 46800.00000 0 -1375705.186 23857731.450 9035555.799 10 0 60746 47700.00000 0 -1418212.852 22567738.475 11905380.224 10 0 60746 48600.00000 0 -1630171.948 20955002.021 14545209.416 10 0 60746 49500.00000 0 -2047607.035 19068704.801 16904237.860 10 0 60746 50400.00000 0 -2696461.403 16966124.118 18937110.483 10 0 60746 51300.00000 0 -3591296.369 14710360.619 20604767.335 10 0 60746 52200.00000 0 -4734471.428 12367848.526 21875168.726 10 0 60746 53100.00000 0 -6115838.475 10005748.720 22723889.427 10 0 60746 54000.00000 0 -7712962.595 7689330.061 23134572.783 10 0 60746 54900.00000 0 -9491861.017 5479444.312 23099237.644 10 0 60746 55800.00000 0 -11408231.192 3430196.157 22618433.144 10 0 60746 56700.00000 0 -13409119.528 1586901.911 21701238.451 10 0 60746 57600.00000 0 -15434964.672 -15580.795 20365106.705 10 0 60746 58500.00000 0 -17421933.940 -1354084.560 18635554.604 10 0 60746 59400.00000 0 -19304459.223 -2417874.412 16545701.302 10 0 60746 60300.00000 0 -21017869.944 -3208869.454 14135662.794 10 0 60746 61200.00000 0 -22501015.633 -3741333.523 11451810.402 10 0 60746 62100.00000 0 -23698770.018 -4041046.026 8545904.722 10 0 60746 63000.00000 0 -24564312.126 -4143985.626 5474118.970 10 0 60746 63900.00000 0 -25061087.854 -4094579.974 2295968.433 10 0 60746 64800.00000 0 -25164367.660 -3943593.481 -926834.768 10 0 60746 65700.00000 0 -24862332.030 -3745741.178 -4131580.145 10 0 60746 66600.00000 0 -24156635.626 -3557129.322 -7255787.080 10 0 60746 67500.00000 0 -23062422.765 -3432631.866 -10238437.987 10 0 60746 68400.00000 0 -21607790.223 -3423315.709 -13021190.740 10 0 60746 69300.00000 0 -19832717.210 -3574026.473 -15549544.479 10 0 60746 70200.00000 0 -17787505.628 -3921240.417 -17773933.509 10 0 60746 71100.00000 0 -15530795.311 -4491277.076 -19650725.279 10 0 60746 72000.00000 0 -13127237.786 -5298951.917 -21143100.358 10 0 60746 72900.00000 0 -10644927.279 -6346729.233 -22221794.948 10 0 60746 73800.00000 0 -8152698.465 -7624413.729 -22865689.601 10 0 60746 74700.00000 0 -5717406.354 -9109395.587 -23062231.340 10 0 60746 75600.00000 0 -3401304.403 -10767439.484 -22807680.278 10 0 60746 76500.00000 0 -1259632.403 -12553984.256 -22107175.877 10 0 60746 77400.00000 0 661483.692 -14415897.462 -20974622.104 10 0 60746 78300.00000 0 2326731.866 -16293609.413 -19432394.893 10 0 60746 79200.00000 0 3712843.655 -18123534.939 -17510879.172 10 0 60746 80100.00000 0 4809303.638 -19840678.902 -15247846.508 10 0 60746 81000.00000 0 5618511.919 -21381314.078 -12687687.728 10 0 60746 81900.00000 0 6155396.457 -22685617.457 -9880517.804 10 0 60746 82800.00000 0 6446495.690 -23700153.423 -6881172.811 10 0 60746 83700.00000 0 6528554.382 -24380099.637 -3748120.614 10 0 60746 84600.00000 0 6446695.915 -24691123.127 -542308.293 10 0 60746 85500.00000 0 6252251.638 -24610829.551 2674029.887 10 0 60747 0.00000 0 6000341.501 -24129727.345 5838579.771 10 0 60747 900.00000 0 5747309.567 -23251668.741 8890148.020 10 0 60747 1800.00000 0 5548123.464 -21993752.770 11769829.283 10 0 60747 2700.00000 0 5453846.448 -20385696.040 14422124.189 10 0 60747 3600.00000 0 5509287.491 -18468700.114 16795984.159 10 0 60747 4500.00000 0 5750926.170 -16293863.763 18845766.930 10 0 60747 5400.00000 0 6205197.290 -13920206.421 20532086.744 10 0 60747 6300.00000 0 6887205.059 -11412384.204 21822545.600 10 0 60747 7200.00000 0 7799918.963 -8838191.541 22692334.094 10 0 60747 8100.00000 0 8933884.023 -6265949.396 23124692.575 10 0 60747 9000.00000 0 10267457.539 -3761885.151 23111225.417 10 0 60747 9900.00000 0 11767563.422 -1387609.281 22652063.356 10 0 60747 10800.00000 0 13390934.701 802209.930 21755870.854 10 0 60747 11700.00000 0 15085795.219 2761880.166 20439697.674 10 0 60747 12600.00000 0 16793913.788 4456345.077 18728675.923 10 0 60747 13500.00000 0 18452948.692 5862402.822 16655566.196 10 0 60747 14400.00000 0 19998988.101 6969432.711 14260158.807 10 0 60747 15300.00000 0 21369183.047 7779598.982 11588538.650 10 0 60747 16200.00000 0 22504364.764 8307521.767 8692224.888 10 0 60747 17100.00000 0 23351537.595 8579427.082 5627199.299 10 0 60747 18000.00000 0 23866142.471 8631809.363 2452839.878 10 0 60747 18900.00000 0 24013994.329 8509660.856 -769221.248 10 0 60747 19800.00000 0 23772809.399 8264340.986 -3976294.201 10 0 60747 20700.00000 0 23133254.704 7951174.944 -7105858.666 10 0 60747 21600.00000 0 22099471.848 7626883.201 -10096797.364 10 0 60747 22500.00000 0 20689049.260 7346951.930 -12890610.059 10 0 60747 23400.00000 0 18932440.705 7163057.784 -15432582.203 10 0 60747 24300.00000 0 16871851.867 7120658.936 -17672882.892 10 0 60747 25200.00000 0 14559640.093 7256857.711 -19567568.086 10 0 60747 26100.00000 0 12056293.887 7598628.767 -21079466.828 10 0 60747 27000.00000 0 9428077.261 8161491.028 -22178930.919 10 0 60747 27900.00000 0 6744438.929 8948682.305 -22844431.508 10 0 60747 28800.00000 0 4075296.666 9950873.468 -23062989.623 10 0 60747 29700.00000 0 1488312.545 11146435.360 -22830431.527 10 0 60747 30600.00000 0 -953725.016 12502247.330 -22151463.854 10 0 60747 31500.00000 0 -3195301.388 13975012.539 -21039567.593 10 0 60747 32400.00000 0 -5190256.926 15513023.096 -19516714.082 10 0 60747 33300.00000 0 -6903462.387 17058298.635 -17612910.161 10 0 60747 34200.00000 0 -8312019.686 18549005.953 -15365583.298 10 0 60747 35100.00000 0 -9405940.040 19922055.610 -12818820.918 10 0 60747 36000.00000 0 -10188274.304 21115764.262 -10022481.083 10 0 60747 36900.00000 0 -10674693.960 22072469.335 -7031194.215 10 0 60747 37800.00000 0 -10892544.676 22740985.476 -3903277.443 10 0 60747 38700.00000 0 -10879416.571 23078799.726 -699584.540 10 0 60747 39600.00000 0 -10681295.322 23053914.248 2517684.782 10 0 60747 40500.00000 0 -10350375.293 22646261.050 5686192.265 10 0 60747 41400.00000 0 -9942629.173 21848631.667 8744661.654 10 0 60747 42300.00000 0 -9515237.772 20667085.405 11634049.592 10 0 60747 43200.00000 0 -9123988.359 19120821.585 14298665.493 10 0 60747 44100.00000 0 -8820750.154 17241523.179 16687220.574 10 0 60747 45000.00000 0 -8651131.411 15072200.682 18753788.123 10 0 60747 45900.00000 0 -8652414.256 12665584.866 20458659.151 10 0 60747 46800.00000 0 -8851851.535 10082134.772 21769079.716 10 0 60747 47700.00000 0 -9265394.812 7387742.161 22659858.345 10 0 60747 48600.00000 0 -9896905.126 4651225.222 23113834.175 10 0 60747 49500.00000 0 -10737878.670 1941712.286 23122198.518 10 0 60747 50400.00000 0 -11767699.015 -673979.567 22684664.673 10 0 60747 51300.00000 0 -12954406.544 -3133865.999 21809482.885 10 0 60747 52200.00000 0 -14255955.153 -5383115.829 20513299.485 10 0 60747 53100.00000 0 -15621906.618 -7376076.770 18820861.393 10 0 60747 54000.00000 0 -16995495.202 -9077924.254 16764569.506 10 0 60747 54900.00000 0 -18315979.588 -10465865.611 14383886.793 10 0 60747 55800.00000 0 -19521186.790 -11529849.261 11724609.587 10 0 60747 56700.00000 0 -20550143.834 -12272748.268 8838013.081 10 0 60747 57600.00000 0 -21345688.216 -12710008.831 5779884.752 10 0 60747 58500.00000 0 -21856947.674 -12868776.291 2609462.183 10 0 60747 59400.00000 0 -22041584.009 -12786533.241 -611705.788 10 0 60747 60300.00000 0 -21867704.311 -12509305.160 -3820953.306 10 0 60747 61200.00000 0 -21315355.993 -12089508.039 -6955723.843 10 0 60747 62100.00000 0 -20377538.876 -11583528.455 -9954803.927 10 0 60747 63000.00000 0 -19060687.732 -11049138.944 -12759538.666 10 0 60747 63900.00000 0 -17384601.100 -10542859.541 -15315003.144 10 0 60747 64800.00000 0 -15381816.114 -10117379.449 -17571104.366 10 0 60747 65700.00000 0 -13096453.115 -9819150.897 -19483589.570 10 0 60747 66600.00000 0 -10582577.168 -9686260.220 -21014938.602 10 0 60747 67500.00000 0 -7902144.806 -9746669.381 -22135120.635 10 0 60747 68400.00000 0 -5122622.611 -10016905.096 -22822198.565 10 0 60747 69300.00000 0 -2314378.727 -10501253.130 -23062767.920 10 0 60747 70200.00000 0 452041.745 -11191493.082 -22852220.979 10 0 60747 71100.00000 0 3108641.626 -12067185.265 -22194830.835 10 0 60747 72000.00000 0 5592581.102 -13096496.972 -21103654.256 10 0 60747 72900.00000 0 7848561.523 -14237531.872 -19600256.324 10 0 60747 73800.00000 0 9830883.502 -15440104.411 -17714263.755 10 0 60747 74700.00000 0 11505093.834 -16647881.923 -15482757.567 10 0 60747 75600.00000 0 12849153.974 -17800801.584 -12949519.172 10 0 60747 76500.00000 0 13854083.796 -18837657.932 -10164146.894 10 0 60747 77400.00000 0 14524057.143 -19698750.014 -7181062.504 10 0 60747 78300.00000 0 14875949.233 -20328475.349 -4058429.290 10 0 60747 79200.00000 0 14938359.263 -20677761.074 -857004.567 10 0 60747 80100.00000 0 14750153.493 -20706230.359 2361049.613 10 0 60747 81000.00000 0 14358593.842 -20384014.221 5533373.613 10 0 60747 81900.00000 0 13817133.639 -19693134.458 8598611.631 10 0 60747 82800.00000 0 13182975.239 -18628401.959 11497584.569 10 0 60747 83700.00000 0 12514493.014 -17197795.069 14174412.870 10 0 60747 84600.00000 0 11868629.746 -15422304.307 16577569.453 10 0 60747 85500.00000 0 11298374.486 -13335251.503 18660844.702 10 0 60748 0.00000 0 10850425.699 -10981112.755 20384207.434 10 0 60748 900.00000 0 10563134.981 -8413892.714 21714548.878 10 0 60748 1800.00000 0 10464815.498 -5695119.769 22626295.758 10 0 60748 2700.00000 0 10572482.890 -2891539.008 23101886.085 10 0 60748 3600.00000 0 10891080.340 -72598.686 23132097.861 10 0 60748 4500.00000 0 11413219.204 2692170.315 22716226.406 10 0 60748 5400.00000 0 12119446.406 5335777.033 21862106.940 10 0 60748 6300.00000 0 12979028.759 7796289.919 20585981.327 10 0 60748 7200.00000 0 13951223.653 10019151.881 18912210.075 10 0 60748 8100.00000 0 14986985.876 11959197.171 16872832.973 10 0 60748 9000.00000 0 16031042.312 13582287.671 14506984.098 10 0 60748 9900.00000 0 17024250.739 14866500.768 11860169.518 10 0 60748 10800.00000 0 17906146.425 15802818.614 8983418.598 10 0 60748 11700.00000 0 18617571.461 16395288.463 5932322.519 10 0 60748 12600.00000 0 19103277.019 16660645.277 2765976.308 10 0 60748 13500.00000 0 19314388.613 16627410.140 -454156.734 10 0 60748 14400.00000 0 19210628.841 16334500.179 -3665437.096 10 0 60748 15300.00000 0 18762201.199 15829406.816 -6805274.367 10 0 60748 16200.00000 0 17951252.002 15166018.168 -9812361.165 10 0 60748 17100.00000 0 16772844.735 14402177.444 -12627890.113 10 0 60748 18000.00000 0 15235401.674 13597081.352 -15196727.966 10 0 60748 18900.00000 0 13360590.386 12808630.274 -17468521.501 10 0 60748 19800.00000 0 11182656.732 12090844.687 -19398710.939 10 0 60748 20700.00000 0 8747230.169 11491459.986 -20949428.476 10 0 60748 21600.00000 0 6109650.348 11049804.389 -22090262.064 10 0 60748 22500.00000 0 3332884.958 10795052.386 -22798867.603 10 0 60748 23400.00000 0 485126.868 10744929.783 -23061416.194 10 0 60748 24300.00000 0 -2362827.466 10904926.528 -22872866.963 10 0 60748 25200.00000 0 -5140306.891 11268051.107 -22237059.986 10 0 60748 26100.00000 0 -7779485.781 11815136.490 -21166627.969 10 0 60748 27000.00000 0 -10217980.410 12515683.406 -19682729.473 10 0 60748 27900.00000 0 -12401212.069 13329203.299 -17814610.398 10 0 60748 28800.00000 0 -14284438.054 14207001.699 -15599004.226 10 0 60748 29700.00000 0 -15834366.522 15094323.903 -13079384.912 10 0 60748 30600.00000 0 -17030289.616 15932769.632 -10305089.312 10 0 60748 31500.00000 0 -17864690.254 16662872.322 -7330328.596 10 0 60748 32400.00000 0 -18343300.818 17226732.357 -4213110.098 10 0 60748 33300.00000 0 -18484615.357 17570592.111 -1014092.441 10 0 60748 34200.00000 0 -18318880.015 17647244.014 2204602.325 10 0 60748 35100.00000 0 -17886608.050 17418170.846 5380595.611 10 0 60748 36000.00000 0 -17236685.227 16855329.558 8452454.579 10 0 60748 36900.00000 0 -16424147.682 15942505.565 11360866.966 10 0 60748 37800.00000 0 -15507727.055 14676182.838 14049766.867 10 0 60748 38700.00000 0 -14547266.227 13065895.450 16467391.525 10 0 60748 39600.00000 0 -13601113.288 11134047.593 18567250.996 10 0 60748 40500.00000 0 -12723601.248 8915210.658 20308994.641 10 0 60748 41400.00000 0 -11962716.620 6454926.811 21659160.531 10 0 60748 42300.00000 0 -11358051.744 3808068.040 22591795.987 10 0 60748 43200.00000 0 -10939123.795 1036817.018 23088939.653 10 0 60748 44100.00000 0 -10724128.478 -1791649.225 23140957.633 10 0 60748 45000.00000 0 -10719178.931 -4607680.097 22746728.285 10 0 60748 45900.00000 0 -10918061.061 -7341776.081 21913672.378 10 0 60748 46800.00000 0 -11302515.948 -9927212.185 20657627.420 10 0 60748 47700.00000 0 -11843038.947 -12302554.899 19002567.129 10 0 60748 48600.00000 0 -12500164.312 -14413970.988 16980169.334 10 0 60748 49500.00000 0 -13226184.344 -16217234.093 14629237.895 10 0 60748 50400.00000 0 -13967233.974 -17679346.426 11994986.864 10 0 60748 51300.00000 0 -14665656.057 -18779707.740 9128197.662 10 0 60748 52200.00000 0 -15262550.171 -19510781.518 6084262.725 10 0 60748 53100.00000 0 -15700398.932 -19878228.518 2922131.831 10 0 60748 54000.00000 0 -15925661.381 -19900499.697 -296820.179 10 0 60748 54900.00000 0 -15891223.039 -19607903.100 -3509983.226 10 0 60748 55800.00000 0 -15558597.058 -19041181.792 -6654736.245 10 0 60748 56700.00000 0 -14899780.408 -18249661.118 -9669681.267 10 0 60748 57600.00000 0 -13898682.884 -17289042.662 -12495861.808 10 0 60748 58500.00000 0 -12552064.501 -16218938.173 -15077939.637 10 0 60748 59400.00000 0 -10869937.622 -15100248.721 -17365304.523 10 0 60748 60300.00000 0 -8875413.271 -13992501.683 -19313092.649 10 0 60748 61200.00000 0 -6603995.158 -12951260.566 -20883091.184 10 0 60748 62100.00000 0 -4102349.210 -12025719.807 -22044509.006 10 0 60748 63000.00000 0 -1426599.285 -11256588.830 -22774596.618 10 0 60748 63900.00000 0 1359779.299 -10674356.993 -23059101.698 10 0 60748 64800.00000 0 4188379.285 -10298014.300 -22892550.630 10 0 60748 65700.00000 0 6988491.281 -10134282.633 -22278350.316 10 0 60748 66600.00000 0 9689832.015 -10177389.748 -21228708.731 10 0 60748 67500.00000 0 12225255.268 -10409394.424 -19764376.775 10 0 60748 68400.00000 0 14533330.828 -10801047.011 -17914217.970 10 0 60748 69300.00000 0 16560682.954 -11313146.403 -15714616.295 10 0 60748 70200.00000 0 18263990.771 -11898333.051 -13208735.897 10 0 60748 71100.00000 0 19611568.131 -12503239.173 -10445649.440 10 0 60748 72000.00000 0 20584458.929 -13070902.363 -7479354.445 10 0 60748 72900.00000 0 21177005.076 -13543338.249 -4367698.972 10 0 60748 73800.00000 0 21396866.983 -13864161.799 -1171239.452 10 0 60748 74700.00000 0 21264499.720 -13981145.764 2047945.632 10 0 60748 75600.00000 0 20812110.836 -13848608.351 5227462.248 10 0 60748 76500.00000 0 20082147.211 -13429530.364 8305803.860 10 0 60748 77400.00000 0 19125377.360 -12697314.196 11223528.093 10 0 60748 78300.00000 0 17998651.625 -11637112.722 13924385.383 10 0 60748 79200.00000 0 16762435.025 -10246674.346 16356379.581 10 0 60748 80100.00000 0 15478215.870 -8536670.681 18472742.259 10 0 60748 81000.00000 0 14205897.297 -6530494.491 20232804.593 10 0 60748 81900.00000 0 13001278.649 -4263536.848 21602752.788 10 0 60748 82800.00000 0 11913729.262 -1781973.237 22556255.151 10 0 60748 83700.00000 0 10984148.865 858892.342 23074951.117 10 0 60748 84600.00000 0 10243297.017 3596658.869 23148794.667 10 0 60748 85500.00000 0 9710559.042 6364154.286 22776246.598 10 0 60749 0.00000 0 9393198.595 9091962.907 21964312.379 10 0 60749 900.00000 0 9286127.430 11711054.851 20728423.757 10 0 60749 1800.00000 0 9372202.960 14155408.435 19092166.180 10 0 60749 2700.00000 0 9623042.094 16364524.747 17086853.731 10 0 60749 3600.00000 0 10000319.958 18285728.589 14750958.063 10 0 60749 4500.00000 0 10457501.548 19876162.815 12129399.043 10 0 60749 5400.00000 0 10941936.323 21104392.903 9272707.810 10 0 60749 6300.00000 0 11397230.093 21951553.883 6236075.593 10 0 60749 7200.00000 0 11765796.012 22411989.861 3078304.356 10 0 60749 8100.00000 0 11991477.897 22493356.917 -139322.130 10 0 60749 9000.00000 0 12022134.747 22216182.367 -3354225.824 10 0 60749 9900.00000 0 11812075.754 21612896.297 -6503757.533 10 0 60749 10800.00000 0 11324240.299 20726373.933 -9526431.088 10 0 60749 11700.00000 0 10532027.288 19608048.817 -12363143.075 10 0 60749 12600.00000 0 9420692.576 18315675.768 -14958352.223 10 0 60749 13500.00000 0 7988251.245 16910838.391 -17261192.992 10 0 60749 14400.00000 0 6245842.741 15456307.598 -19226498.994 10 0 60749 15300.00000 0 4217540.067 14013364.602 -20815713.610 10 0 60749 16200.00000 0 1939608.503 12639203.771 -21997667.693 10 0 60749 17100.00000 0 -540756.592 11384527.448 -22749207.189 10 0 60749 18000.00000 0 -3167160.431 10291436.509 -23055656.980 10 0 60749 18900.00000 0 -5876134.932 9391707.368 -22911111.065 10 0 60749 19800.00000 0 -8599570.132 8705529.080 -22318543.208 10 0 60749 20700.00000 0 -11267347.415 8240753.848 -21289736.316 10 0 60749 21600.00000 0 -13810062.571 7992691.568 -19845032.896 10 0 60749 22500.00000 0 -16161723.157 7944455.213 -18012912.963 10 0 60749 23400.00000 0 -18262306.114 8067839.807 -15829409.510 10 0 60749 24300.00000 0 -20060068.220 8324694.669 -13337375.113 10 0 60749 25200.00000 0 -21513513.140 8668727.540 -10585616.283 10 0 60749 26100.00000 0 -22592934.105 9047660.959 -7627914.806 10 0 60749 27000.00000 0 -23281469.951 9405646.771 -4521957.316 10 0 60749 27900.00000 0 -23575633.377 9685834.353 -1328195.862 10 0 60749 28800.00000 0 -23485292.880 9832982.489 1891336.852 10 0 60749 29700.00000 0 -23033112.974 9796003.986 5074233.592 10 0 60749 30600.00000 0 -22253479.837 9530335.936 8158916.411 10 0 60749 31500.00000 0 -21190960.636 9000036.805 11085815.143 10 0 60749 32400.00000 0 -19898363.474 8179523.754 13798498.909 10 0 60749 33300.00000 0 -18434480.595 7054879.149 16244740.492 10 0 60749 34200.00000 0 -16861609.551 5624673.420 18377495.233 10 0 60749 35100.00000 0 -15242955.094 3900271.397 20155778.237 10 0 60749 36000.00000 0 -13640018.491 1905610.268 21545425.746 10 0 60749 36900.00000 0 -12110080.618 -323541.496 22519728.693 10 0 60749 37800.00000 0 -10703880.804 -2740814.318 23059928.639 10 0 60749 38700.00000 0 -9463585.094 -5290907.569 23155568.426 10 0 60749 39600.00000 0 -8421125.857 -7911632.940 22804691.917 10 0 60749 40500.00000 0 -7596979.789 -10536249.773 22013889.348 10 0 60749 41400.00000 0 -6999433.970 -13095999.319 20798186.867 10 0 60749 42300.00000 0 -6624370.343 -15522736.523 19180781.033 10 0 60749 43200.00000 0 -6455578.305 -17751553.523 17192621.300 10 0 60749 44100.00000 0 -6465583.912 -19723288.578 14871845.863 10 0 60749 45000.00000 0 -6616963.153 -21386817.759 12263078.821 10 0 60749 45900.00000 0 -6864086.693 -22701034.562 9416599.161 10 0 60749 46800.00000 0 -7155225.144 -23636434.316 6387394.787 10 0 60749 47700.00000 0 -7434928.240 -24176235.589 3234117.523 10 0 60749 48600.00000 0 -7646578.774 -24316989.261 17957.569 10 0 60749 49500.00000 0 -7735013.689 -24068646.910 -3198541.715 10 0 60749 50400.00000 0 -7649100.661 -23454082.644 -6352705.794 10 0 60749 51300.00000 0 -7344159.151 -22508085.792 -9382963.200 10 0 60749 52200.00000 0 -6784120.579 -21275864.725 -12230066.580 10 0 60749 53100.00000 0 -5943332.534 -19811123.544 -14838274.642 10 0 60749 54000.00000 0 -4807926.708 -18173792.322 -17156469.506 10 0 60749 54900.00000 0 -3376688.675 -16427507.188 -19139185.022 10 0 60749 55800.00000 0 -1661389.125 -14636947.881 -20747523.343 10 0 60749 56700.00000 0 313440.476 -12865147.031 -21949939.481 10 0 60749 57600.00000 0 2511280.497 -11170886.838 -22722876.571 10 0 60749 58500.00000 0 4884912.696 -9606295.093 -23051237.951 10 0 60749 59400.00000 0 7378172.717 -8214743.693 -22928685.980 10 0 60749 60300.00000 0 9928091.296 -7029139.348 -22357761.541 10 0 60749 61200.00000 0 12467332.999 -6070678.832 -21349822.261 10 0 60749 62100.00000 0 14926828.572 -5348120.560 -19924801.598 10 0 60749 63000.00000 0 17238488.828 -4857601.509 -18110794.980 10 0 60749 63900.00000 0 19337884.838 -4583004.711 -15943482.896 10 0 60749 64800.00000 0 21166781.180 -4496858.546 -13465404.397 10 0 60749 65700.00000 0 22675415.900 -4561726.237 -10725097.449 10 0 60749 66600.00000 0 23824432.306 -4732023.122 -7776125.290 10 0 60749 67500.00000 0 24586383.239 -4956181.386 -4676009.957 10 0 60749 68400.00000 0 24946747.228 -5179067.768 -1485095.679 10 0 60749 69300.00000 0 24904416.995 -5344549.832 1734634.216 10 0 60749 70200.00000 0 24471643.362 -5398101.062 4920762.906 10 0 60749 71100.00000 0 23673440.465 -5289334.438 8011644.525 10 0 60749 72000.00000 0 22546480.452 -4974358.192 10947584.388 10 0 60749 72900.00000 0 21137526.635 -4417855.790 13671973.255 10 0 60749 73800.00000 0 19501472.430 -3594804.466 16132355.414 10 0 60749 74700.00000 0 17699068.783 -2491762.095 18281412.146 10 0 60749 75600.00000 0 15794434.600 -1107670.315 20077844.244 10 0 60749 76500.00000 0 13852452.594 545858.388 21487139.335 10 0 60749 77400.00000 0 11936156.721 2444780.999 22482211.918 10 0 60749 78300.00000 0 10104217.104 4553382.058 23043906.214 10 0 60749 79200.00000 0 8408623.821 6825519.273 23161354.041 10 0 60749 80100.00000 0 6892662.880 9206307.210 22832182.022 10 0 60749 81000.00000 0 5589265.824 11634172.195 22062564.525 10 0 60749 81900.00000 0 4519799.736 14043196.736 20867120.810 10 0 60749 82800.00000 0 3693346.965 16365659.898 19268657.071 10 0 60749 83700.00000 0 3106504.570 18534671.696 17297756.246 10 0 60749 84600.00000 0 2743712.713 20486795.051 14992220.890 10 0 60749 85500.00000 0 2578099.953 22164548.319 12396376.891 99